www.pogodaiklimat.ru

Погода и климат >> Архив погоды >> Россия >> Красноярский край >> Кодинск


ПОГОДА в Кодинске

  • Прогноз погоды в Кодинске
  • Монитор погоды в Кодинске

АРХИВ ПОГОДЫ в Кодинске

Время (UTC), дата Ветер
(напр.,м/с)
 
Видим.   Явления Облачность Т
(С)
Тd
(С)
f
(%)
Тe
(С)
Тes
(С)
Комфортность P
(гПа)
Po
(гПа)
Тmin
(С)
Tmax
(С)
R
(мм)
R24
(мм)
S
(см)
09 13.08 В 1 н/о н/о +13.3 +10.4 83 +13 +13 1006.4 976.2
12 13.08 штиль 0 н/о н/о +12.5 +11.3 92 +12 +12 1008.4 978.1 +13.8 0.8
15 13.08 штиль 0 н/о н/о +10.2 +9.6 96 +9 +9 1010.3 979.7
18 13.08 С 1 н/о н/о +6.1 +6.1 100 +5 +5 1011.3 980.2
21 13.08 С 1 н/о н/о +3.3 +3.3 100 +2 +2 1012.5 981.1
00 14.08 штиль 0 н/о н/о +11.4 +11.4 100 +11 +11 1013.0 982.5 +2.9 0.4
03 14.08 С 2 н/о н/о +16.5 +11.3 71 +17 +17 1013.3 983.3
06 14.08 СЗ 1 н/о н/о +20.3 +12.3 60 +23 +23 комфорт 1013.4 983.8
09 14.08 СВ 1 н/о н/о +20.6 +11.9 57 +24 +24 комфорт 1014.1 984.5
12 14.08 штиль 0 н/о н/о +18.3 +14.7 80 +19 +19 1014.8 985.0 +21.9
15 14.08 СВ 1 н/о н/о +9.3 +9.1 99 +9 +9 1017.1 986.2
18 14.08 С 1 н/о н/о +7.2 +7.2 100 +6 +6 1017.9 986.7
21 14.08 СВ 1 н/о н/о +5.1 +5.1 100 +4 +4 1018.2 986.8
00 15.08 штиль 0 н/о н/о +11.6 +11.6 100 +11 +11 1017.6 987.0 +5.0
03 15.08 Ю 1 н/о н/о +20.3 +13.6 65 +24 +24 комфорт 1016.8 987.1
06 15.08 ЮВ 2 н/о н/о +22.5 +10.4 46 +24 +24 комфорт 1015.8 986.3
09 15.08 Ю 1 н/о н/о +23.2 +11.5 48 +26 +26 жарко 1014.7 985.3
12 15.08 С 1 н/о н/о +18.9 +16.2 84 +21 +21 комфорт 1014.7 984.9 +23.7
15 15.08 С 1 н/о н/о +9.8 +9.2 96 +9 +9 1016.5 985.7
18 15.08 С 1 н/о н/о +8.0 +8.0 100 +7 +7 1016.9 985.9
21 15.08 штиль 0 н/о н/о +7.4 +7.4 100 +6 +6 1017.1 986.0
00 16.08 штиль 0 н/о н/о +11.6 +11.6 100 +11 +11 1016.9 986.3 +6.4
03 16.08 СВ 1 н/о н/о +19.2 +13.1 68 +22 +22 комфорт 1015.6 985.8
06 16.08 В 2 н/о н/о +22.0 +14.4 62 +25 +25 комфорт 1014.4 984.9
09 16.08 СВ 1 н/о н/о +22.1 +13.7 59 +25 +25 комфорт 1013.6 984.1
12 16.08 СВ 1 н/о н/о +19.5 +13.2 67 +22 +22 комфорт 1013.6 983.9 +22.5
15 16.08 штиль 0 н/о н/о +11.2 +10.3 94 +10 +10 1015.0 984.4
18 16.08 С 1 н/о н/о +10.3 +10.2 99 +10 +10 1014.8 984.1
21 16.08 штиль 0 н/о н/о +7.1 +7.1 100 +6 +6 1015.0 984.0
00 17.08 штиль 0 н/о н/о +12.9 +12.9 100 +12 +12 1014.4 984.0 +6.4
03 17.08 В 2 н/о н/о +16.8 +12.8 77 +17 +17 1013.9 983.9
06 17.08 СВ 2 н/о н/о +17.1 +12.7 75 +17 +17 1014.1 984.1
09 17.08 СВ 2 н/о н/о +19.4 +13.4 68 +21 +21 комфорт 1013.5 983.8
12 17.08 СВ 1 н/о н/о +15.6 +12.1 80 +16 +16 1014.8 984.7 +19.8
15 17.08 штиль 0 н/о н/о +9.1 +9.0 99 +8 +8 1016.1 985.2
18 17.08 С 1 н/о н/о +9.2 +9.2 100 +8 +8 1015.8 984.9
21 17.08 штиль 0 н/о н/о +8.4 +8.4 100 +7 +7 1015.6 984.6
00 18.08 штиль 0 н/о н/о +11.7 +11.7 100 +11 +11 1015.4 984.8 +6.8
03 18.08 Ю 1 н/о н/о +17.4 +13.3 77 +18 +18 1014.5 984.6
06 18.08 С 2 н/о н/о +18.5 +13.2 71 +20 +20 1013.5 983.7
09 18.08 С 1 н/о н/о +21.2 +13.1 60 +24 +24 комфорт 1012.2 982.7
12 18.08 штиль 0 н/о н/о +17.0 +14.6 86 +17 +17 1012.5 982.6 +21.2
15 18.08 С 1 н/о н/о +8.9 +8.7 99 +8 +8 1013.8 983.0
18 18.08 штиль 0 н/о н/о +10.3 +10.2 99 +9 +9 1013.3 982.6
21 18.08 С 1 н/о н/о +9.3 +9.3 100 +8 +8 1013.5 982.8
00 19.08 СЗ 1 н/о н/о +12.8 +12.7 99 +13 +13 1014.0 983.6 +8.2
09 19.08 С 1 н/о н/о +18.7 +13.6 72 +21 +21 комфорт 1014.1 984.4
12 19.08 штиль 0 н/о н/о +15.7 +14.1 90 +15 +15 1014.7 984.6 +18.8 0.4
15 19.08 штиль 0 н/о н/о +11.5 +11.3 99 +11 +11 1016.1 985.5
00 20.08 штиль 0 н/о н/о +10.6 +10.6 100 +10 +10 1016.9 986.2 +4.9 0.0

 

Местоположение метеостанции Кодинск (Красноярский край, Россия): широта 58.61 долгота 99.20 высота над уровнем моря 256 м.

В архиве по умолчанию представлена погода в Кодинске за последнюю неделю. Архивные данные за месяц целиком и за предыдущие месяцы, начиная с января 2011 года, Вы можете получить, выбрав интересующий диапазон дат из раскрывающегося списка и нажав кнопку "Ввод!".


*Определитесь, кто Вы:
робот инопланетянин человек

Внимание! Время в таблицах - всемирное. Для получения местного времени необходимо прибавить поправку, которая равна 7 ч.

Смотрите также архив погоды в соседних городах и на ближайших метеорологических станциях:

Погода в Богучанах (Красноярский край, Россия) (105 км)
Погода в Червянке (Иркутская область, Россия) (109 км)
Погода в Усть-Илимске (Иркутская область, Россия) (211 км)
Погода в Ершово (Иркутская область, Россия) (247 км)
Погода в Усть-Камо (Эвенкия, Россия) (253 км)
Погода в Ванаваре (Эвенкия, Россия) (259 км)
Погода в Чемдальске (Красноярский край, Россия) (260 км)
Погода в Мотыгино (Красноярский край, Россия) (267 км)
Погода в Абане (Красноярский край, Россия) (284 км)
Погода в Братске (Иркутская область, Россия) (299 км)

Пояснения к столбцам:

Ветер - указаны скорость ветра в м/с - средняя за 10 мин, порывы в срок и между сроками (в фигурных скобках) и направление, откуда дует ветер: С - северный, СВ - северо-восточный, В - восточный, ЮВ - юго-восточный, Ю - южный, ЮЗ - юго-западный, З - западный, СЗ - северо-западный.
Видимость - горизонтальная дальность видимости в метрах или километрах. При видимости от 1 до 10 км при отсутствии осадков обычно наблюдается дымка, при ухудшении видимости до 1 км и менее - туман. В сухую погоду видимость может ухудшаться дымом, пылью или мглою.
Явления - указаны атмосферные явления, наблюдавшиеся в срок или в последний час перед сроком; фигурными скобками обозначены явления, наблюдавшиеся между сроками (за 1-3 часа до срока); квадратными скобками обозначены град или гололедные отложения с указанием их диаметра в мм.
Облачность - указаны через наклонную черту общая и нижняя облачность в баллах и высота нижней границы облаков в метрах; квадратными скобками обозначены формы облаков: Ci - перистые, Cs - перисто-слоистые, Cc - перисто-кучевые, Ac - высококучевые, As - высокослоистые, Sc - слоисто-кучевые, Ns - слоисто-дождевые, Cu - кучевые, Cb - кучево-дождевые. Подробнее классификацию облаков см. в Атласе облаков (PDF).
T - Температура воздуха - температура, измеренная на высоте 2 м над землей.
Td - Температура точки росы - температура, при понижении до которой содержащийся в воздухе водяной пар достигнет насыщения.
f - Относительная влажность воздуха - влажноcть воздуха, измеренная на высоте 2 м над землей.
Te - Эффективная температура - температура, которую ощущает одетый по сезону человек в тени. Характеристика душности погоды. При расчете учитывается влияние влажности воздуха и скорости ветра на теплоощущения человека.
Tes - Эффективная температура на солнце - температура, которую ощущает человек, с поправкой на солнечный нагрев. Характеристика знойности погоды. Зависит от высоты солнца над горизонтом, облачности и скорости ветра. Ночью, в пасмурную погоду, а также при ветре 12 м/с и более поправка равна нулю.
P - Атмосферное давление - приведенное к уровню моря атмосферное давление.
Po - Атмосферное давление - измеренное на уровне метеостанции атмосферное давление.
Tmin - Минимальная температура - минимум температуры воздуха на высоте 2 м над землей.
Tmax - Максимальная температура - максимум температуры воздуха на высоте 2 м над землей.
R - Количество осадков - Количество выпавших осадков за период времени, мм. При наведении курсора мыши на число - период времени, за который выпало указанное количество осадков.
R24 - Количество осадков - Количество выпавших осадков за 24 часа, мм.
S - Снежный покров - Высота снежного покрова, см. При наведении курсора мыши на число - состояние снежного покрова и степень покрытия местности в баллах.